FENGYUN 1C DEB

Satellite information

Favourite Embed

Satellite Type and Status

DEBRISIN ORBIT

Key statistics

Satellite FENGYUN 1C DEB at a glance.

Uptime

9659

Days in orbit

Revolutions

≈ 14.4

Per day

Orbit

SSO

Sun Synchronous Orbit

Inclination

99.7

Latest

Satellite identification and parameters

Extended collection of information and parameters for FENGYUN 1C DEB.

Object identification

Identified? True

Debris? True

Object name: FENGYUN 1C DEB

International designator: 1999-025BAZ

Object number (NORAD): 30959

Object ID (CCSDS): 30959

Country: PEOPLES REPUBLIC OF CHINA (PRC)

Current information (Y/N): Y

RCS size: SMALL

Orbital parameters

Period: 100.255 minutes

Inclination: 99.6921 deg

SMA: 7148.786 km

Apoapsis: 810.166 km

Periapsis: 731.136 km

RAAN: 232.534 deg

Eccentricy: 0.00552747

Argument of periapsis: 8.2918 deg

Mean anomaly: 351.9165 deg

Mean motion: 14.36330252 rev/day

Mean motion (dot): 0.00016186 rev/day2

B* drag term: 0.0054430736 1/REarth

Two-line elements (TLE)

Creation date: Oct. 18, 2025, 10:30 a.m.

Reference frame: TEME

Reference center: EARTH

Epoch: Oct. 18, 2025, 1:18 a.m. UTC

TLE line 0: 0 FENGYUN 1C DEB

TLE line 1: 1 30959U 99025BAZ 25291.05444917 .00016186 00000-0 54431-2 0 9995

TLE line 2: 2 30959 99.6921 232.5340 0055275 8.2918 351.9165 14.36330252595867

Live tracking on map

Real-time ground track for satellite FENGYUN 1C DEB.

In-orbit conjunctions

A list of the most updated potential collisions computed for object FENGYUN 1C DEB.

Target Orbit TCA Probability of collision Miss distance Type
THORAD AGENA D DEB LEO 2024-11-12 07:22:35 0.0008148679 330.0 (m) DEBRIS
CZ-6A DEB LEO 2024-10-07 04:32:17 0.0001041232 684.0 (m) DEBRIS
SJ-5 SSO 2024-06-05 08:20:58 0.0004105647 155.0 (m) PAYLOAD

Associated space launch

Chinese polar orbiting meteorological satellite

FENGYUN 1C DEB was lifted into orbit during the mission ‘Long March 4B | Feng Yun 1C’, on board a Long March 4B space rocket.

The launch took place on May 10, 1999, 1:33 a.m. from Launch Complex 7.

For more information about the launch, click the button.

Launch to space Long March 4B | Feng Yun 1C
Long March 4B | Feng Yun 1C

Agency: N/A

Status: Launch Successful

Launch date: May 10, 1999, 1:33 a.m. UTC

Rocket: Long March 4B

Launch pad: Launch Complex 7

Location: Taiyuan Satellite Launch Center, People's Republic of China

...

Latest news about this satellite

There are no fresh news available about this satellite. Check back as we update our databases every day.


Newsletter sign-up

Weekly statistics, charts and insights to help you stay on top of the space industry.